START_TIME,STEP,MOV.,AL01,t_acc.,AL02,t_acc.,E37,t_acc.,H21,t_acc.
1980-11-15 00:00:22.880 ,4,0,0.,24.0,0.,24.0,1.,24.0,0.,24.0
1980-11-15 00:00:46.880 ,3,1,0.,24.0,0.,24.0,0.,24.0,0.,24.0
1980-11-15 00:01:10.880 ,3,0,0.,24.0,0.,24.0,1.,24.0,0.,24.0
1980-11-15 00:01:34.880 ,2,1,0.,24.0,0.,24.0,0.,24.0,0.,24.0
1980-11-15 00:01:58.880 ,2,0,0.,24.0,0.,24.0,0.,24.0,0.,24.0
1980-11-15 00:02:22.880 ,1,1,0.,24.0,0.,24.0,0.,24.0,0.,24.0
1980-11-15 00:02:46.880 ,1,0,0.,24.0,0.,24.0,0.,24.0,0.,24.0
1980-11-15 00:03:10.880 ,0,1,0.,24.0,0.,24.0,1.,24.0,0.,24.0
1980-11-15 00:03:34.880 ,0,0,0.,24.0,0.,24.0,2.,24.0,0.,24.0
1980-11-15 00:03:58.880 ,0,1,0.,24.0,0.,24.0,0.,24.0,0.,24.0
1980-11-15 00:04:22.880 ,0,0,0.,24.0,0.,24.0,0.,24.0,0.,24.0
1980-11-15 00:04:46.880 ,1,1,0.,24.0,0.,24.0,2.,24.0,0.,24.0
1980-11-15 00:05:10.880 ,1,0,0.,24.0,0.,24.0,0.,24.0,0.,24.0
1980-11-15 00:05:34.880 ,0,0,0.,24.0,0.,24.0,0.,24.0,0.,24.0
1980-11-15 00:05:58.880 ,0,0,1.,24.0,0.,24.0,0.,24.0,0.,24.0
1980-11-15 00:06:22.880 ,3,1,0.,24.0,0.,24.0,0.,24.0,0.,24.0
1980-11-15 00:06:46.880 ,3,0,0.,24.0,0.,24.0,1.,24.0,0.,24.0
1980-11-15 00:07:10.880 ,4,1,0.,24.0,0.,24.0,0.,24.0,0.,24.0
1980-11-15 00:07:34.880 ,4,0,0.,24.0,0.,24.0,0.,24.0,0.,24.0
1980-11-15 00:07:58.880 ,5,1,0.,24.0,0.,24.0,0.,24.0,0.,24.0
1980-11-15 00:08:22.880 ,5,0,0.,24.0,0.,24.0,1.,24.0,0.,24.0
1980-11-15 00:08:46.880 ,6,1,0.,24.0,0.,24.0,0.,24.0,0.,24.0
1980-11-15 00:09:10.880 ,6,0,0.,24.0,0.,24.0,1.,24.0,0.,24.0
1980-11-15 00:09:34.880 ,7,1,2.,24.0,0.,24.0,0.,24.0,0.,24.0
1980-11-15 00:09:58.880 ,7,0,8.,24.0,0.,24.0,0.,24.0,0.,24.0
1980-11-15 00:10:22.880 ,7,1,9.,24.0,0.,24.0,0.,24.0,0.,24.0
1980-11-15 00:10:46.880 ,7,0,15.,24.0,0.,24.0,1.,24.0,0.,24.0
1980-11-15 00:11:10.880 ,6,1,6.,24.0,0.,24.0,0.,24.0,0.,24.0
1980-11-15 00:11:34.880 ,6,0,0.,24.0,0.,24.0,0.,24.0,0.,24.0
1980-11-15 00:11:58.880 ,5,1,0.,24.0,1.,24.0,1.,24.0,0.,24.0
1980-11-15 00:12:22.880 ,5,0,0.,24.0,0.,24.0,1.,24.0,0.,24.0
1980-11-15 00:12:46.880 ,4,1,0.,24.0,0.,24.0,0.,24.0,0.,24.0
1980-11-15 00:13:10.880 ,4,0,0.,24.0,0.,24.0,0.,24.0,0.,24.0
1980-11-15 00:13:34.880 ,3,1,0.,24.0,0.,24.0,0.,24.0,0.,24.0
1980-11-15 00:13:58.880 ,3,0,0.,24.0,0.,24.0,2.,24.0,0.,24.0
1980-11-15 00:14:22.880 ,2,1,0.,24.0,0.,24.0,0.,24.0,0.,24.0
1980-11-15 00:14:46.880 ,2,0,0.,24.0,0.,24.0,0.,24.0,0.,24.0
1980-11-15 00:15:10.880 ,1,1,0.,24.0,0.,24.0,0.,24.0,0.,24.0
1980-11-15 00:15:34.880 ,1,0,0.,24.0,0.,24.0,0.,24.0,0.,24.0
1980-11-15 00:15:58.880 ,0,1,0.,24.0,0.,24.0,0.,24.0,0.,24.0
1980-11-15 00:16:22.880 ,0,0,0.,24.0,0.,24.0,0.,24.0,0.,24.0
1980-11-15 00:16:46.880 ,0,1,0.,24.0,0.,24.0,0.,24.0,0.,24.0
1980-11-15 00:17:10.880 ,0,0,0.,24.0,0.,24.0,0.,24.0,0.,24.0
1980-11-15 00:17:34.880 ,1,1,0.,24.0,0.,24.0,0.,24.0,0.,24.0
1980-11-15 00:17:58.880 ,1,0,0.,24.0,0.,24.0,1.,24.0,0.,24.0
1980-11-15 00:18:22.880 ,2,1,0.,24.0,0.,24.0,0.,24.0,0.,24.0
1980-11-15 00:18:46.880 ,2,0,0.,24.0,0.,24.0,0.,24.0,0.,24.0
1980-11-15 00:19:10.880 ,3,1,0.,24.0,0.,24.0,1.,24.0,0.,24.0
1980-11-15 00:19:34.880 ,3,0,0.,24.0,0.,24.0,1.,24.0,0.,24.0
1980-11-15 00:19:58.880 ,4,1,0.,24.0,0.,24.0,0.,24.0,0.,24.0
1980-11-15 00:20:22.880 ,4,0,0.,24.0,0.,24.0,1.,24.0,0.,24.0
1980-11-15 00:20:46.880 ,5,1,0.,24.0,0.,24.0,0.,24.0,0.,24.0
1980-11-15 00:21:10.880 ,5,0,0.,24.0,0.,24.0,1.,24.0,0.,24.0
1980-11-15 00:21:34.880 ,6,1,0.,24.0,0.,24.0,0.,24.0,0.,24.0
1980-11-15 00:21:58.880 ,6,0,0.,24.0,0.,24.0,0.,24.0,0.,24.0
1980-11-15 00:22:22.880 ,7,1,4.,24.0,0.,24.0,0.,24.0,0.,24.0
1980-11-15 00:22:46.880 ,7,0,12.,24.0,0.,24.0,1.,24.0,0.,24.0
1980-11-15 00:23:10.880 ,7,1,6.,24.0,0.,24.0,0.,24.0,0.,24.0
1980-11-15 00:23:34.880 ,7,0,9.,24.0,0.,24.0,0.,24.0,0.,24.0
1980-11-15 00:23:58.880 ,6,1,6.,24.0,0.,24.0,0.,24.0,0.,24.0
1980-11-15 00:24:22.880 ,6,0,0.,24.0,0.,24.0,0.,24.0,0.,24.0
1980-11-15 00:24:46.880 ,5,1,0.,24.0,0.,24.0,0.,24.0,0.,24.0
1980-11-15 00:25:10.880 ,5,0,0.,24.0,0.,24.0,0.,24.0,0.,24.0
1980-11-15 00:25:34.880 ,4,1,0.,24.0,0.,24.0,0.,24.0,0.,24.0
1980-11-15 00:25:58.880 ,4,0,0.,24.0,0.,24.0,0.,24.0,0.,24.0
1980-11-15 00:26:22.880 ,3,1,0.,24.0,0.,24.0,0.,24.0,0.,24.0
1980-11-15 00:26:46.880 ,3,0,0.,24.0,0.,24.0,1.,24.0,0.,24.0
1980-11-15 00:27:10.880 ,2,1,0.,24.0,0.,24.0,0.,24.0,0.,24.0
1980-11-15 00:27:34.880 ,2,0,0.,24.0,0.,24.0,0.,24.0,0.,24.0
1980-11-15 00:27:58.880 ,1,1,0.,24.0,0.,24.0,0.,24.0,0.,24.0
1980-11-15 00:28:22.880 ,1,0,0.,24.0,0.,24.0,1.,24.0,0.,24.0
1980-11-15 00:28:46.880 ,0,1,0.,24.0,0.,24.0,1.,24.0,0.,24.0
1980-11-15 00:29:10.880 ,0,0,0.,24.0,0.,24.0,0.,24.0,0.,24.0
1980-11-15 00:29:34.880 ,0,1,0.,24.0,0.,24.0,1.,24.0,0.,24.0
1980-11-15 00:29:58.880 ,0,0,0.,24.0,0.,24.0,0.,24.0,0.,24.0
1980-11-15 00:30:22.880 ,1,1,0.,24.0,0.,24.0,3.,24.0,0.,24.0
1980-11-15 00:30:46.880 ,1,0,0.,24.0,0.,24.0,1.,24.0,0.,24.0
1980-11-15 00:31:10.880 ,2,1,0.,24.0,0.,24.0,0.,24.0,0.,24.0
1980-11-15 00:31:34.880 ,2,0,0.,24.0,0.,24.0,1.,24.0,0.,24.0
1980-11-15 00:31:58.880 ,3,1,0.,24.0,0.,24.0,0.,24.0,0.,24.0
1980-11-15 00:32:22.880 ,3,0,0.,24.0,0.,24.0,1.,24.0,0.,24.0
1980-11-15 00:32:46.880 ,4,1,0.,24.0,0.,24.0,0.,24.0,0.,24.0
1980-11-15 00:33:10.880 ,4,0,0.,24.0,0.,24.0,0.,24.0,0.,24.0
1980-11-15 00:33:34.880 ,5,1,0.,24.0,0.,24.0,0.,24.0,0.,24.0
1980-11-15 00:33:58.880 ,5,0,0.,24.0,0.,24.0,1.,24.0,0.,24.0
1980-11-15 00:34:22.880 ,6,1,0.,24.0,0.,24.0,1.,24.0,0.,24.0
1980-11-15 00:34:46.880 ,6,0,0.,24.0,0.,24.0,0.,24.0,0.,24.0
1980-11-15 00:35:10.880 ,7,1,2.,24.0,0.,24.0,0.,24.0,0.,24.0
1980-11-15 00:35:34.880 ,7,0,8.,24.0,0.,24.0,0.,24.0,0.,24.0
1980-11-15 00:35:58.880 ,7,1,6.,24.0,0.,24.0,0.,24.0,0.,24.0
1980-11-15 00:36:22.880 ,7,0,7.,24.0,0.,24.0,0.,24.0,0.,24.0
1980-11-15 00:36:46.880 ,6,1,6.,24.0,0.,24.0,1.,24.0,0.,24.0
1980-11-15 00:37:10.880 ,6,0,0.,24.0,0.,24.0,1.,24.0,0.,24.0
1980-11-15 00:37:34.880 ,5,1,0.,24.0,0.,24.0,0.,24.0,0.,24.0
1980-11-15 00:37:58.880 ,5,0,1.,24.0,0.,24.0,0.,24.0,0.,24.0
1980-11-15 00:38:46.880 ,0,0,0.,24.0,0.,24.0,0.,24.0,0.,24.0
1980-11-15 00:39:19.280 ,0,0,0.,24.0,0.,24.0,0.,24.0,0.,24.0
1980-11-15 00:39:34.880 ,0,0,0.,24.0,0.,24.0,1.,24.0,0.,24.0
1980-11-15 00:39:58.880 ,2,1,0.,24.0,0.,24.0,1.,24.0,0.,24.0
1980-11-15 00:40:22.880 ,2,0,0.,24.0,0.,24.0,0.,24.0,0.,24.0
1980-11-15 00:40:46.880 ,1,1,0.,24.0,0.,24.0,0.,24.0,0.,24.0
1980-11-15 00:41:10.880 ,1,0,1.,24.0,0.,24.0,0.,24.0,0.,24.0
1980-11-15 00:41:34.880 ,0,1,0.,24.0,0.,24.0,1.,24.0,0.,24.0
1980-11-15 00:41:58.880 ,0,0,0.,24.0,0.,24.0,0.,24.0,0.,24.0
1980-11-15 00:42:22.880 ,0,1,0.,24.0,0.,24.0,0.,24.0,0.,24.0
1980-11-15 00:42:46.880 ,0,0,0.,24.0,0.,24.0,0.,24.0,0.,24.0
1980-11-15 00:43:10.880 ,1,1,0.,24.0,0.,24.0,0.,24.0,0.,24.0
1980-11-15 00:43:34.880 ,1,0,0.,24.0,0.,24.0,0.,24.0,0.,24.0
1980-11-15 00:43:58.880 ,2,1,0.,24.0,0.,24.0,1.,24.0,0.,24.0
1980-11-15 00:44:22.880 ,2,0,0.,24.0,0.,24.0,0.,24.0,0.,24.0
1980-11-15 00:44:46.880 ,3,1,0.,24.0,0.,24.0,0.,24.0,0.,24.0
1980-11-15 00:45:10.880 ,3,0,0.,24.0,0.,24.0,0.,24.0,0.,24.0
1980-11-15 00:45:34.880 ,4,1,0.,24.0,0.,24.0,0.,24.0,0.,24.0
1980-11-15 00:45:58.880 ,4,0,0.,24.0,0.,24.0,0.,24.0,0.,24.0
1980-11-15 00:46:22.880 ,5,1,0.,24.0,0.,24.0,0.,24.0,0.,24.0
1980-11-15 00:46:46.880 ,5,0,0.,24.0,0.,24.0,0.,24.0,0.,24.0
1980-11-15 00:47:10.880 ,6,1,0.,24.0,0.,24.0,1.,24.0,0.,24.0
1980-11-15 00:47:34.880 ,6,0,0.,24.0,0.,24.0,0.,24.0,0.,24.0
1980-11-15 00:47:58.880 ,7,1,4.,24.0,0.,24.0,2.,24.0,0.,24.0
1980-11-15 00:48:22.880 ,7,0,5.,24.0,0.,24.0,0.,24.0,0.,24.0
1980-11-15 00:48:46.880 ,7,1,14.,24.0,0.,24.0,1.,24.0,0.,24.0
1980-11-15 00:49:10.880 ,7,0,12.,24.0,0.,24.0,1.,24.0,0.,24.0
1980-11-15 00:49:34.880 ,6,1,11.,24.0,1.,24.0,1.,24.0,0.,24.0
1980-11-15 00:49:58.880 ,6,0,0.,24.0,0.,24.0,2.,24.0,0.,24.0
1980-11-15 00:50:22.880 ,5,1,0.,24.0,0.,24.0,0.,24.0,0.,24.0
1980-11-15 00:50:46.880 ,5,0,0.,24.0,0.,24.0,0.,24.0,0.,24.0
1980-11-15 00:51:10.880 ,4,1,0.,24.0,0.,24.0,0.,24.0,0.,24.0
1980-11-15 00:51:34.880 ,4,0,0.,24.0,0.,24.0,1.,24.0,0.,24.0
1980-11-15 00:51:58.880 ,3,1,0.,24.0,0.,24.0,0.,24.0,0.,24.0
1980-11-15 00:52:22.880 ,3,0,0.,24.0,0.,24.0,0.,24.0,0.,24.0
1980-11-15 00:52:46.880 ,2,1,0.,24.0,0.,24.0,1.,24.0,0.,24.0
1980-11-15 00:53:10.880 ,2,0,0.,24.0,0.,24.0,0.,24.0,0.,24.0
1980-11-15 00:53:34.880 ,1,1,0.,24.0,0.,24.0,1.,24.0,0.,24.0
1980-11-15 00:53:58.880 ,1,0,0.,24.0,0.,24.0,0.,24.0,0.,24.0
1980-11-15 00:54:22.880 ,0,1,0.,24.0,0.,24.0,0.,24.0,0.,24.0
1980-11-15 00:54:46.880 ,0,0,0.,24.0,0.,24.0,1.,24.0,0.,24.0
1980-11-15 00:55:10.880 ,0,1,0.,24.0,0.,24.0,0.,24.0,0.,24.0
1980-11-15 00:55:34.880 ,0,0,0.,24.0,0.,24.0,1.,24.0,0.,24.0
1980-11-15 00:55:58.880 ,1,1,0.,24.0,0.,24.0,1.,24.0,0.,24.0
1980-11-15 00:56:22.880 ,1,0,0.,24.0,1.,24.0,1.,24.0,0.,24.0
1980-11-15 00:56:46.880 ,2,1,0.,24.0,0.,24.0,1.,24.0,0.,24.0
1980-11-15 00:57:10.880 ,2,0,0.,24.0,0.,24.0,2.,24.0,0.,24.0
1980-11-15 00:57:34.880 ,3,1,0.,24.0,1.,24.0,1.,24.0,0.,24.0
1980-11-15 00:57:58.880 ,3,0,0.,24.0,0.,24.0,0.,24.0,0.,24.0
1980-11-15 00:58:22.880 ,4,1,0.,24.0,0.,24.0,0.,24.0,0.,24.0
1980-11-15 00:58:46.880 ,4,0,0.,24.0,0.,24.0,0.,24.0,0.,24.0
1980-11-15 00:59:10.880 ,5,1,0.,24.0,0.,24.0,1.,24.0,0.,24.0
1980-11-15 00:59:34.880 ,5,0,0.,24.0,0.,24.0,1.,24.0,0.,24.0
1980-11-15 00:59:58.880 ,6,1,0.,24.0,0.,24.0,0.,24.0,0.,24.0
1980-11-15 01:00:22.880 ,6,0,0.,24.0,0.,24.0,1.,24.0,0.,24.0
1980-11-15 01:00:46.880 ,7,1,0.,24.0,0.,24.0,0.,24.0,0.,24.0
1980-11-15 01:01:10.880 ,7,0,15.,24.0,0.,24.0,0.,24.0,0.,24.0
1980-11-15 01:01:34.880 ,7,1,8.,24.0,0.,24.0,0.,24.0,0.,24.0
1980-11-15 01:01:58.880 ,7,0,7.,24.0,0.,24.0,0.,24.0,0.,24.0
1980-11-15 01:02:22.880 ,6,1,8.,24.0,0.,24.0,0.,24.0,0.,24.0
1980-11-15 01:02:46.880 ,6,0,0.,24.0,0.,24.0,0.,24.0,0.,24.0
1980-11-15 01:03:10.880 ,5,1,0.,24.0,0.,24.0,0.,24.0,0.,24.0
1980-11-15 01:03:34.880 ,5,0,1.,24.0,0.,24.0,0.,24.0,0.,24.0
1980-11-15 01:03:58.880 ,4,1,0.,24.0,0.,24.0,0.,24.0,0.,24.0
1980-11-15 01:04:22.880 ,4,0,0.,24.0,0.,24.0,1.,24.0,0.,24.0
1980-11-15 01:04:46.880 ,3,1,0.,24.0,0.,24.0,2.,24.0,0.,24.0
1980-11-15 01:05:10.880 ,3,0,0.,24.0,0.,24.0,0.,24.0,0.,24.0
1980-11-15 01:05:34.880 ,2,1,0.,24.0,0.,24.0,0.,24.0,0.,24.0
1980-11-15 01:05:58.880 ,2,0,0.,24.0,0.,24.0,0.,24.0,0.,24.0
1980-11-15 01:06:22.880 ,1,1,0.,24.0,1.,24.0,0.,24.0,0.,24.0
1980-11-15 01:06:46.880 ,1,0,0.,24.0,0.,24.0,1.,24.0,0.,24.0
1980-11-15 01:07:10.880 ,0,1,0.,24.0,0.,24.0,0.,24.0,0.,24.0
1980-11-15 01:07:34.880 ,0,0,0.,24.0,0.,24.0,0.,24.0,0.,24.0
1980-11-15 01:07:58.880 ,0,1,0.,24.0,0.,24.0,0.,24.0,0.,24.0
1980-11-15 01:08:22.880 ,0,0,0.,24.0,0.,24.0,1.,24.0,0.,24.0
1980-11-15 01:08:46.880 ,1,1,0.,24.0,0.,24.0,0.,24.0,0.,24.0
1980-11-15 01:09:10.880 ,1,0,0.,24.0,0.,24.0,0.,24.0,0.,24.0
1980-11-15 01:09:34.880 ,2,1,0.,24.0,0.,24.0,0.,24.0,0.,24.0
1980-11-15 01:09:58.880 ,2,0,0.,24.0,0.,24.0,2.,24.0,0.,24.0
1980-11-15 01:10:22.880 ,3,1,0.,24.0,0.,24.0,0.,24.0,0.,24.0
1980-11-15 01:10:46.880 ,3,0,0.,24.0,0.,24.0,0.,24.0,0.,24.0
1980-11-15 01:11:10.880 ,4,1,0.,24.0,0.,24.0,0.,24.0,0.,24.0
1980-11-15 01:11:34.880 ,4,0,0.,24.0,0.,24.0,0.,24.0,0.,24.0
1980-11-15 01:11:58.880 ,5,1,0.,24.0,0.,24.0,0.,24.0,0.,24.0
1980-11-15 01:12:22.880 ,5,0,0.,24.0,0.,24.0,0.,24.0,0.,24.0
1980-11-15 01:12:46.880 ,6,1,0.,24.0,0.,24.0,0.,24.0,0.,24.0
1980-11-15 01:13:10.880 ,6,0,0.,24.0,0.,24.0,0.,24.0,0.,24.0
1980-11-15 01:13:34.880 ,7,1,2.,24.0,0.,24.0,0.,24.0,0.,24.0
1980-11-15 01:13:58.880 ,7,0,8.,24.0,0.,24.0,0.,24.0,0.,24.0
1980-11-15 01:14:22.880 ,7,1,9.,24.0,0.,24.0,0.,24.0,0.,24.0
1980-11-15 01:14:46.880 ,7,0,8.,24.0,0.,24.0,1.,24.0,0.,24.0
1980-11-15 01:15:10.880 ,6,1,3.,24.0,0.,24.0,0.,24.0,0.,24.0
1980-11-15 01:15:34.880 ,6,0,0.,24.0,0.,24.0,1.,24.0,0.,24.0
1980-11-15 01:15:58.880 ,5,1,0.,24.0,0.,24.0,2.,24.0,0.,24.0
1980-11-15 01:16:22.880 ,5,0,0.,24.0,0.,24.0,0.,24.0,0.,24.0
1980-11-15 01:16:46.880 ,4,1,0.,24.0,0.,24.0,0.,24.0,0.,24.0
1980-11-15 01:17:10.880 ,4,0,0.,24.0,0.,24.0,0.,24.0,0.,24.0
1980-11-15 01:17:34.880 ,3,1,0.,24.0,0.,24.0,0.,24.0,0.,24.0
1980-11-15 01:17:58.880 ,3,0,0.,24.0,0.,24.0,0.,24.0,0.,24.0
1980-11-15 01:18:22.880 ,2,1,0.,24.0,0.,24.0,1.,24.0,0.,24.0
1980-11-15 01:18:46.880 ,2,0,0.,24.0,0.,24.0,0.,24.0,0.,24.0
1980-11-15 01:19:10.880 ,1,1,0.,24.0,0.,24.0,1.,24.0,0.,24.0
1980-11-15 01:19:34.880 ,0,0,0.,24.0,0.,24.0,0.,24.0,0.,24.0
1980-11-15 01:22:33.680 ,0,0,,0,,0,,0,,0
1980-11-15 01:22:46.880 ,0,0,0.,24.0,0.,24.0,0.,24.0,0.,24.0
1980-11-15 01:23:10.880 ,3,1,0.,24.0,0.,24.0,1.,24.0,0.,24.0
1980-11-15 01:23:34.880 ,3,0,0.,24.0,0.,24.0,0.,24.0,0.,24.0
1980-11-15 01:23:58.880 ,4,1,0.,24.0,0.,24.0,1.,24.0,0.,24.0
1980-11-15 01:24:22.880 ,4,0,0.,24.0,0.,24.0,0.,24.0,0.,24.0
1980-11-15 01:24:46.880 ,5,1,0.,24.0,0.,24.0,0.,24.0,0.,24.0
1980-11-15 01:25:10.880 ,5,0,0.,24.0,0.,24.0,1.,24.0,0.,24.0
1980-11-15 01:25:34.880 ,6,1,0.,24.0,0.,24.0,1.,24.0,0.,24.0
1980-11-15 01:25:58.880 ,6,0,0.,24.0,0.,24.0,0.,24.0,0.,24.0
1980-11-15 01:26:22.880 ,7,1,3.,24.0,0.,24.0,2.,24.0,0.,24.0
1980-11-15 01:26:46.880 ,7,0,5.,24.0,0.,24.0,0.,24.0,0.,24.0
1980-11-15 01:27:10.880 ,7,1,9.,24.0,0.,24.0,0.,24.0,0.,24.0
1980-11-15 01:27:34.880 ,7,0,10.,24.0,0.,24.0,0.,24.0,0.,24.0
1980-11-15 01:27:58.880 ,6,1,3.,24.0,0.,24.0,0.,24.0,0.,24.0
1980-11-15 01:28:22.880 ,6,0,0.,24.0,0.,24.0,2.,24.0,0.,24.0
1980-11-15 01:28:46.880 ,5,1,0.,24.0,0.,24.0,2.,24.0,0.,24.0
1980-11-15 01:29:10.880 ,5,0,0.,24.0,0.,24.0,0.,24.0,0.,24.0
1980-11-15 01:29:34.880 ,4,1,0.,24.0,0.,24.0,1.,24.0,0.,24.0
1980-11-15 01:29:58.880 ,4,0,0.,24.0,0.,24.0,0.,24.0,0.,24.0
1980-11-15 01:30:22.880 ,3,1,0.,24.0,0.,24.0,0.,24.0,0.,24.0
1980-11-15 01:30:46.880 ,3,0,0.,24.0,0.,24.0,1.,24.0,0.,24.0
1980-11-15 01:31:10.880 ,2,1,0.,24.0,0.,24.0,1.,24.0,0.,24.0
1980-11-15 01:31:34.880 ,2,0,0.,24.0,0.,24.0,0.,24.0,0.,24.0
1980-11-15 01:31:58.880 ,1,1,0.,24.0,0.,24.0,0.,24.0,0.,24.0
1980-11-15 01:32:22.880 ,1,0,0.,24.0,0.,24.0,0.,24.0,0.,24.0
1980-11-15 01:32:46.880 ,0,1,0.,24.0,0.,24.0,0.,24.0,0.,24.0
1980-11-15 01:33:10.880 ,0,0,0.,24.0,0.,24.0,2.,24.0,0.,24.0
1980-11-15 01:33:34.880 ,0,1,0.,24.0,0.,24.0,3.,24.0,0.,24.0
1980-11-15 01:33:58.880 ,0,0,0.,24.0,0.,24.0,0.,24.0,0.,24.0
1980-11-15 01:34:22.880 ,1,1,0.,24.0,0.,24.0,0.,24.0,0.,24.0
1980-11-15 01:34:46.880 ,1,0,1.,24.0,0.,24.0,0.,24.0,0.,24.0
1980-11-15 01:35:10.880 ,2,1,0.,24.0,0.,24.0,1.,24.0,0.,24.0
1980-11-15 01:35:34.880 ,2,0,0.,24.0,0.,24.0,0.,24.0,0.,24.0
1980-11-15 01:35:58.880 ,3,1,0.,24.0,0.,24.0,0.,24.0,0.,24.0
1980-11-15 01:36:22.880 ,3,0,0.,24.0,0.,24.0,2.,24.0,0.,24.0
1980-11-15 01:36:46.880 ,4,1,0.,24.0,0.,24.0,0.,24.0,0.,24.0
1980-11-15 01:37:10.880 ,4,0,0.,24.0,0.,24.0,2.,24.0,0.,24.0
1980-11-15 01:37:34.880 ,5,1,0.,24.0,0.,24.0,0.,24.0,0.,24.0
1980-11-15 01:37:58.880 ,5,0,0.,24.0,0.,24.0,0.,24.0,0.,24.0
1980-11-15 01:38:22.880 ,6,1,0.,24.0,0.,24.0,0.,24.0,0.,24.0
1980-11-15 01:38:46.880 ,6,0,1.,24.0,0.,24.0,1.,24.0,0.,24.0
1980-11-15 01:39:10.880 ,7,1,2.,24.0,0.,24.0,1.,24.0,0.,24.0
1980-11-15 01:39:34.880 ,7,0,7.,24.0,0.,24.0,0.,24.0,0.,24.0
1980-11-15 01:39:58.880 ,7,1,6.,24.0,0.,24.0,1.,24.0,0.,24.0
1980-11-15 01:40:22.880 ,7,0,5.,24.0,0.,24.0,0.,24.0,0.,24.0
1980-11-15 01:40:46.880 ,6,1,4.,24.0,0.,24.0,1.,24.0,0.,24.0
1980-11-15 01:41:10.880 ,6,0,0.,24.0,0.,24.0,2.,24.0,0.,24.0
1980-11-15 01:41:34.880 ,5,1,0.,24.0,0.,24.0,0.,24.0,0.,24.0
1980-11-15 01:41:58.880 ,5,0,0.,24.0,0.,24.0,0.,24.0,0.,24.0
1980-11-15 01:42:22.880 ,4,1,0.,24.0,0.,24.0,1.,24.0,0.,24.0
1980-11-15 01:42:46.880 ,4,0,0.,24.0,0.,24.0,0.,24.0,0.,24.0
1980-11-15 01:43:10.880 ,3,1,0.,24.0,0.,24.0,0.,24.0,0.,24.0
1980-11-15 01:43:34.880 ,0,0,0.,24.0,0.,24.0,1.,24.0,0.,24.0
1980-11-15 01:45:09.080 ,0,0,,0,,0,,0,,0
1980-11-15 01:45:10.880 ,0,0,0.,24.0,0.,24.0,1.,24.0,0.,24.0
1980-11-15 01:45:34.880 ,0,1,0.,24.0,0.,24.0,0.,24.0,0.,24.0
1980-11-15 01:45:58.880 ,0,0,0.,24.0,0.,24.0,0.,24.0,0.,24.0
1980-11-15 01:46:22.880 ,0,1,0.,24.0,0.,24.0,0.,24.0,0.,24.0
1980-11-15 01:46:46.880 ,0,0,0.,24.0,0.,24.0,2.,24.0,0.,24.0
1980-11-15 01:47:10.880 ,1,1,0.,24.0,0.,24.0,0.,24.0,0.,24.0
1980-11-15 01:47:34.880 ,1,0,0.,24.0,0.,24.0,1.,24.0,0.,24.0
1980-11-15 01:47:58.880 ,2,1,0.,24.0,0.,24.0,0.,24.0,0.,24.0
1980-11-15 01:48:22.880 ,2,0,0.,24.0,0.,24.0,0.,24.0,0.,24.0
1980-11-15 01:48:46.880 ,3,1,0.,24.0,0.,24.0,0.,24.0,0.,24.0
1980-11-15 01:49:10.880 ,3,0,0.,24.0,0.,24.0,0.,24.0,0.,24.0
1980-11-15 01:49:34.880 ,4,1,0.,24.0,0.,24.0,0.,24.0,0.,24.0
1980-11-15 01:49:58.880 ,4,0,0.,24.0,0.,24.0,0.,24.0,0.,24.0
1980-11-15 01:50:22.880 ,5,1,0.,24.0,0.,24.0,0.,24.0,0.,24.0
1980-11-15 01:50:46.880 ,5,0,0.,24.0,0.,24.0,0.,24.0,0.,24.0
1980-11-15 01:51:10.880 ,6,1,0.,24.0,0.,24.0,0.,24.0,0.,24.0
1980-11-15 01:51:34.880 ,6,0,0.,24.0,0.,24.0,0.,24.0,0.,24.0
1980-11-15 01:51:58.880 ,7,1,4.,24.0,0.,24.0,1.,24.0,0.,24.0
1980-11-15 01:52:22.880 ,7,0,5.,24.0,0.,24.0,0.,24.0,0.,24.0
1980-11-15 01:52:46.880 ,7,1,12.,24.0,0.,24.0,0.,24.0,0.,24.0
1980-11-15 01:53:10.880 ,7,0,18.,24.0,0.,24.0,2.,24.0,0.,24.0
1980-11-15 01:53:34.880 ,6,1,3.,24.0,0.,24.0,0.,24.0,0.,24.0
1980-11-15 01:53:58.880 ,6,0,0.,24.0,0.,24.0,0.,24.0,0.,24.0
1980-11-15 01:54:22.880 ,5,1,0.,24.0,0.,24.0,0.,24.0,0.,24.0
1980-11-15 01:54:46.880 ,5,0,0.,24.0,0.,24.0,1.,24.0,0.,24.0
1980-11-15 01:55:10.880 ,4,1,0.,24.0,0.,24.0,1.,24.0,0.,24.0
1980-11-15 01:55:34.880 ,4,0,0.,24.0,0.,24.0,1.,24.0,0.,24.0
1980-11-15 01:55:58.880 ,3,1,0.,24.0,0.,24.0,0.,24.0,0.,24.0
1980-11-15 01:56:22.880 ,3,0,0.,24.0,0.,24.0,0.,24.0,0.,24.0
1980-11-15 01:56:46.880 ,2,1,0.,24.0,0.,24.0,1.,24.0,0.,24.0
1980-11-15 01:57:10.880 ,2,0,0.,24.0,0.,24.0,1.,24.0,0.,24.0
1980-11-15 01:57:34.880 ,1,1,0.,24.0,0.,24.0,0.,24.0,0.,24.0
1980-11-15 01:57:58.880 ,1,0,0.,24.0,0.,24.0,1.,24.0,0.,24.0
1980-11-15 01:58:22.880 ,0,1,0.,24.0,0.,24.0,0.,24.0,0.,24.0
1980-11-15 01:58:46.880 ,0,0,0.,24.0,0.,24.0,0.,24.0,0.,24.0
1980-11-15 01:59:10.880 ,0,1,0.,24.0,0.,24.0,0.,24.0,0.,24.0
1980-11-15 01:59:34.880 ,0,0,0.,24.0,0.,24.0,0.,24.0,0.,24.0
1980-11-15 01:59:58.880 ,1,1,0.,24.0,0.,24.0,0.,24.0,0.,24.0
1980-11-15 02:00:22.880 ,1,0,0.,24.0,0.,24.0,0.,24.0,0.,24.0
1980-11-15 02:00:46.880 ,2,1,0.,24.0,0.,24.0,1.,24.0,0.,24.0
1980-11-15 02:01:10.880 ,2,0,0.,24.0,0.,24.0,0.,24.0,0.,24.0
1980-11-15 02:01:34.880 ,3,1,0.,24.0,0.,24.0,1.,24.0,0.,24.0
1980-11-15 02:01:58.880 ,3,0,0.,24.0,0.,24.0,0.,24.0,0.,24.0
1980-11-15 02:02:22.880 ,4,1,0.,24.0,0.,24.0,0.,24.0,0.,24.0
1980-11-15 02:02:46.880 ,4,0,0.,24.0,0.,24.0,0.,24.0,0.,24.0
1980-11-15 02:03:10.880 ,5,1,0.,24.0,0.,24.0,0.,24.0,0.,24.0
1980-11-15 02:03:34.880 ,5,0,0.,24.0,0.,24.0,0.,24.0,0.,24.0
1980-11-15 02:03:58.880 ,6,1,0.,24.0,0.,24.0,1.,24.0,0.,24.0
1980-11-15 02:04:22.880 ,6,0,0.,24.0,0.,24.0,0.,24.0,0.,24.0
1980-11-15 02:04:46.880 ,7,1,5.,24.0,0.,24.0,1.,24.0,0.,24.0
1980-11-15 02:05:10.880 ,7,0,18.,24.0,0.,24.0,0.,24.0,0.,24.0
1980-11-15 02:05:34.880 ,7,1,6.,24.0,0.,24.0,1.,24.0,0.,24.0
1980-11-15 02:05:58.880 ,7,0,9.,24.0,0.,24.0,0.,24.0,0.,24.0
1980-11-15 02:06:22.880 ,6,1,9.,24.0,0.,24.0,0.,24.0,0.,24.0
1980-11-15 02:06:46.880 ,6,0,0.,24.0,0.,24.0,0.,24.0,0.,24.0
1980-11-15 02:07:10.880 ,5,1,0.,24.0,0.,24.0,1.,24.0,0.,24.0
1980-11-15 02:07:34.880 ,5,0,0.,24.0,0.,24.0,0.,24.0,0.,24.0
1980-11-15 02:07:58.880 ,4,1,0.,24.0,0.,24.0,0.,24.0,0.,24.0
1980-11-15 02:08:22.880 ,4,0,0.,24.0,0.,24.0,0.,24.0,0.,24.0
1980-11-15 02:08:46.880 ,3,1,0.,24.0,0.,24.0,0.,24.0,0.,24.0
1980-11-15 02:09:10.880 ,3,0,0.,24.0,0.,24.0,1.,24.0,0.,24.0
1980-11-15 02:09:34.880 ,2,1,0.,24.0,0.,24.0,2.,24.0,0.,24.0
1980-11-15 02:09:58.880 ,2,0,0.,24.0,1.,24.0,0.,24.0,0.,24.0
1980-11-15 02:10:22.880 ,1,1,1.,24.0,0.,24.0,2.,24.0,0.,24.0
1980-11-15 02:10:46.880 ,1,0,0.,24.0,0.,24.0,0.,24.0,0.,24.0
1980-11-15 02:11:10.880 ,0,1,0.,24.0,0.,24.0,0.,24.0,0.,24.0
1980-11-15 02:11:34.880 ,0,0,0.,24.0,0.,24.0,0.,24.0,0.,24.0
1980-11-15 02:11:58.880 ,0,1,0.,24.0,0.,24.0,1.,24.0,0.,24.0
1980-11-15 02:12:22.880 ,0,0,0.,24.0,0.,24.0,0.,24.0,0.,24.0
1980-11-15 02:12:46.880 ,1,1,0.,24.0,0.,24.0,1.,24.0,0.,24.0
1980-11-15 02:13:10.880 ,1,0,0.,24.0,0.,24.0,0.,24.0,0.,24.0
1980-11-15 02:13:34.880 ,2,1,0.,24.0,0.,24.0,1.,24.0,0.,24.0
1980-11-15 02:13:58.880 ,2,0,0.,24.0,0.,24.0,0.,24.0,0.,24.0
1980-11-15 02:14:22.880 ,3,1,0.,24.0,0.,24.0,1.,24.0,0.,24.0
1980-11-15 02:14:46.880 ,3,0,0.,24.0,0.,24.0,2.,24.0,0.,24.0
1980-11-15 02:15:10.880 ,4,1,0.,24.0,0.,24.0,0.,24.0,0.,24.0
1980-11-15 02:15:34.880 ,4,0,0.,24.0,0.,24.0,3.,24.0,0.,24.0
1980-11-15 02:15:58.880 ,5,1,0.,24.0,0.,24.0,0.,24.0,0.,24.0
1980-11-15 02:16:22.880 ,5,0,0.,24.0,0.,24.0,1.,24.0,0.,24.0
1980-11-15 02:16:46.880 ,6,1,0.,24.0,0.,24.0,0.,24.0,0.,24.0
1980-11-15 02:17:10.880 ,6,0,0.,24.0,0.,24.0,0.,24.0,0.,24.0
1980-11-15 02:17:34.880 ,7,1,0.,24.0,0.,24.0,1.,24.0,0.,24.0
1980-11-15 02:17:58.880 ,7,0,1.,24.0,0.,24.0,0.,24.0,0.,24.0
1980-11-15 02:18:22.880 ,7,1,13.,24.0,0.,24.0,0.,24.0,0.,24.0
1980-11-15 02:18:46.880 ,7,0,13.,24.0,0.,24.0,0.,24.0,0.,24.0
1980-11-15 02:19:10.880 ,6,1,10.,24.0,0.,24.0,0.,24.0,0.,24.0
1980-11-15 02:19:34.880 ,6,0,0.,24.0,0.,24.0,0.,24.0,0.,24.0
1980-11-15 02:19:58.880 ,5,1,0.,24.0,0.,24.0,0.,24.0,0.,24.0
1980-11-15 02:20:22.880 ,5,0,0.,24.0,0.,24.0,0.,24.0,0.,24.0
1980-11-15 02:20:46.880 ,4,1,0.,24.0,0.,24.0,0.,24.0,0.,24.0
1980-11-15 02:21:10.880 ,4,0,0.,24.0,0.,24.0,0.,24.0,0.,24.0
1980-11-15 02:21:34.880 ,3,1,0.,24.0,0.,24.0,0.,24.0,0.,24.0
1980-11-15 02:21:58.880 ,3,0,0.,24.0,0.,24.0,0.,24.0,0.,24.0
1980-11-15 02:22:22.880 ,2,1,0.,24.0,0.,24.0,1.,24.0,0.,24.0
1980-11-15 02:22:46.880 ,2,0,0.,24.0,0.,24.0,0.,24.0,0.,24.0
1980-11-15 02:23:10.880 ,1,1,0.,24.0,0.,24.0,0.,24.0,0.,24.0
1980-11-15 02:23:34.880 ,1,0,0.,24.0,0.,24.0,0.,24.0,0.,24.0
1980-11-15 02:23:58.880 ,0,1,0.,24.0,0.,24.0,0.,24.0,0.,24.0
1980-11-15 02:24:22.880 ,0,0,0.,24.0,0.,24.0,0.,24.0,0.,24.0
1980-11-15 02:24:46.880 ,0,1,0.,24.0,0.,24.0,0.,24.0,0.,24.0
1980-11-15 02:25:10.880 ,0,0,0.,24.0,0.,24.0,0.,24.0,0.,24.0
1980-11-15 02:25:34.880 ,1,1,0.,24.0,0.,24.0,0.,24.0,0.,24.0
1980-11-15 02:25:58.880 ,1,0,0.,24.0,0.,24.0,2.,24.0,0.,24.0
1980-11-15 02:26:22.880 ,2,1,0.,24.0,0.,24.0,0.,24.0,0.,24.0
1980-11-15 02:26:46.880 ,2,0,1.,24.0,0.,24.0,0.,24.0,0.,24.0
1980-11-15 02:27:10.880 ,3,1,0.,24.0,0.,24.0,0.,24.0,0.,24.0
1980-11-15 02:27:34.880 ,3,0,0.,24.0,1.,24.0,0.,24.0,0.,24.0
1980-11-15 02:27:58.880 ,4,1,0.,24.0,0.,24.0,1.,24.0,0.,24.0
1980-11-15 02:28:22.880 ,4,0,0.,24.0,0.,24.0,0.,24.0,0.,24.0
1980-11-15 02:28:46.880 ,5,1,0.,24.0,0.,24.0,1.,24.0,0.,24.0
1980-11-15 02:29:10.880 ,5,0,0.,24.0,0.,24.0,0.,24.0,0.,24.0
1980-11-15 02:29:34.880 ,6,1,0.,24.0,0.,24.0,0.,24.0,0.,24.0
1980-11-15 02:29:58.880 ,6,0,0.,24.0,0.,24.0,1.,24.0,0.,24.0
1980-11-15 02:30:22.880 ,7,1,1.,24.0,0.,24.0,0.,24.0,0.,24.0
1980-11-15 02:30:46.880 ,7,0,8.,24.0,0.,24.0,0.,24.0,0.,24.0
1980-11-15 02:31:10.880 ,7,1,12.,24.0,0.,24.0,1.,24.0,0.,24.0
1980-11-15 02:31:34.880 ,7,0,3.,24.0,0.,24.0,0.,24.0,0.,24.0
1980-11-15 02:31:58.880 ,6,1,11.,24.0,0.,24.0,1.,24.0,0.,24.0
1980-11-15 02:32:22.880 ,6,0,0.,24.0,0.,24.0,0.,24.0,0.,24.0
1980-11-15 02:32:46.880 ,5,1,0.,24.0,0.,24.0,0.,24.0,0.,24.0
1980-11-15 02:33:10.880 ,5,0,0.,24.0,1.,24.0,0.,24.0,0.,24.0
1980-11-15 02:33:34.880 ,4,1,0.,24.0,0.,24.0,0.,24.0,0.,24.0
1980-11-15 02:33:58.880 ,4,0,0.,24.0,0.,24.0,2.,24.0,0.,24.0
1980-11-15 02:34:22.880 ,3,1,0.,24.0,0.,24.0,0.,24.0,0.,24.0
1980-11-15 02:34:46.880 ,3,0,0.,24.0,0.,24.0,1.,24.0,0.,24.0
1980-11-15 02:35:10.880 ,2,1,0.,24.0,0.,24.0,1.,24.0,0.,24.0
1980-11-15 02:35:34.880 ,2,0,0.,24.0,0.,24.0,0.,24.0,0.,24.0
1980-11-15 02:35:58.880 ,1,1,0.,24.0,0.,24.0,0.,24.0,0.,24.0
1980-11-15 02:36:22.880 ,1,0,0.,24.0,0.,24.0,1.,24.0,0.,24.0
1980-11-15 02:36:46.880 ,0,1,0.,24.0,0.,24.0,2.,24.0,0.,24.0
1980-11-15 02:37:10.880 ,0,0,1.,24.0,0.,24.0,0.,24.0,0.,24.0
1980-11-15 02:37:34.880 ,0,1,0.,24.0,0.,24.0,1.,24.0,0.,24.0
1980-11-15 02:37:58.880 ,0,0,0.,24.0,0.,24.0,2.,24.0,0.,24.0